SFJ127 RJFR-RKPK

Flight info

Callsign SFJ127
Flight time 0h 29m
Altitude 22000
Route ONGHA DGC G339 BEETL Y208 INVOK PEDLO2
Aircraft A21N/M-SDE3FGHIRWY/LB1

Departure

Time 2026-05-01 11:39
Airport Kitakyushu Airport (RJFR)

Arrival

Time 2026-05-01 12:08
Airport Gimhae International Airport (RKPK)
Time Latitude Longitude Altitude Speed Heading
2026-05-01 11:35 33.84084 131.03404 9 ft 0 kts 349°
2026-05-01 11:35 33.84088 131.03403 9 ft 4 kts 349°
2026-05-01 11:36 33.84166 131.03384 9 ft 18 kts 348°
2026-05-01 11:36 33.84333 131.03351 9 ft 30 kts 355°
2026-05-01 11:36 33.84575 131.03304 9 ft 40 kts 351°
2026-05-01 11:36 33.84861 131.03241 9 ft 39 kts 350°
2026-05-01 11:37 33.85127 131.03185 9 ft 37 kts 350°
2026-05-01 11:37 33.85378 131.03131 9 ft 35 kts 349°
2026-05-01 11:37 33.85606 131.03096 9 ft 23 kts 14°
2026-05-01 11:37 33.85647 131.03178 9 ft 0 kts 74°
2026-05-01 11:38 33.85648 131.03186 9 ft 2 kts 74°
2026-05-01 11:38 33.85657 131.03250 9 ft 11 kts 115°
2026-05-01 11:38 33.85601 131.03296 9 ft 0 kts 166°
2026-05-01 11:38 33.85600 131.03296 9 ft 1 kts 166°
2026-05-01 11:39 33.85413 131.03334 9 ft 70 kts 169°
2026-05-01 11:39 33.84645 131.03491 9 ft 149 kts 171°
2026-05-01 11:39 33.83516 131.03737 554 ft 169 kts 175°
2026-05-01 11:39 33.82404 131.04250 1378 ft 185 kts 145°
2026-05-01 11:40 33.81753 131.05597 2116 ft 200 kts 94°
2026-05-01 11:40 33.81956 131.07292 2740 ft 214 kts 55°
2026-05-01 11:40 33.82986 131.08489 3567 ft 203 kts
2026-05-01 11:40 33.84317 131.08461 4373 ft 197 kts 330°
2026-05-01 11:41 33.85386 131.07396 5128 ft 211 kts 307°
2026-05-01 11:41 33.85935 131.05672 5825 ft 238 kts 279°
2026-05-01 11:41 33.85683 131.03584 6653 ft 261 kts 264°
2026-05-01 11:41 33.85200 131.01483 7580 ft 271 kts 261°
2026-05-01 11:42 33.84603 130.99275 8500 ft 279 kts 261°
2026-05-01 11:42 33.83998 130.97052 9383 ft 286 kts 261°
2026-05-01 11:42 33.83371 130.94774 10243 ft 292 kts 261°
2026-05-01 11:42 33.82719 130.92409 10989 ft 303 kts 260°
2026-05-01 11:43 33.82167 130.89934 11504 ft 314 kts 272°
2026-05-01 11:43 33.82522 130.87347 12072 ft 315 kts 298°
2026-05-01 11:43 33.83582 130.85045 12988 ft 320 kts 302°
2026-05-01 11:44 33.85754 130.80344 15020 ft 325 kts 300°
2026-05-01 11:44 33.86809 130.77953 15791 ft 334 kts 299°
2026-05-01 11:44 33.87910 130.75409 16454 ft 345 kts 299°
2026-05-01 11:44 33.88995 130.72862 17374 ft 348 kts 298°
2026-05-01 11:45 33.90092 130.70279 18311 ft 350 kts 298°
2026-05-01 11:45 33.91188 130.67671 19153 ft 354 kts 298°
2026-05-01 11:45 33.92311 130.64996 19925 ft 359 kts 298°
2026-05-01 11:45 33.93447 130.62289 20268 ft 374 kts 298°
2026-05-01 11:46 33.94630 130.59462 20527 ft 389 kts 298°
2026-05-01 11:46 33.95856 130.56534 20774 ft 403 kts 298°
2026-05-01 11:46 33.97126 130.53488 21238 ft 410 kts 299°
2026-05-01 11:46 33.98416 130.50394 21708 ft 411 kts 298°
2026-05-01 11:47 33.99701 130.47307 21908 ft 412 kts 299°
2026-05-01 11:47 34.00981 130.44229 21913 ft 411 kts 298°
2026-05-01 11:47 34.02253 130.41179 21915 ft 410 kts 299°
2026-05-01 11:47 34.03537 130.38083 21907 ft 410 kts 299°
2026-05-01 11:48 34.04816 130.35005 21904 ft 409 kts 299°
2026-05-01 11:48 34.06083 130.31947 21910 ft 410 kts 298°
2026-05-01 11:48 34.07363 130.28854 21908 ft 411 kts 299°
2026-05-01 11:48 34.08624 130.25800 21908 ft 411 kts 298°
2026-05-01 11:49 34.09910 130.22693 21908 ft 411 kts 298°
2026-05-01 11:49 34.11184 130.19614 21911 ft 411 kts 298°
2026-05-01 11:49 34.12456 130.16531 21906 ft 410 kts 299°
2026-05-01 11:49 34.13742 130.13406 21898 ft 411 kts 298°
2026-05-01 11:50 34.15004 130.10336 21905 ft 411 kts 299°
2026-05-01 11:50 34.16287 130.07220 21908 ft 411 kts 299°
2026-05-01 11:50 34.17559 130.04137 21907 ft 411 kts 298°
2026-05-01 11:50 34.18830 130.01030 21908 ft 411 kts 299°
2026-05-01 11:51 34.20095 129.97943 21907 ft 412 kts 299°
2026-05-01 11:51 34.21367 129.94844 21902 ft 412 kts 298°
2026-05-01 11:51 34.22632 129.91751 21907 ft 411 kts 299°
2026-05-01 11:51 34.23906 129.88632 21910 ft 411 kts 298°
2026-05-01 11:52 34.25230 129.85577 21871 ft 407 kts 303°
2026-05-01 11:52 34.26887 129.82834 21489 ft 400 kts 311°
2026-05-01 11:52 34.28832 129.80493 20576 ft 392 kts 318°
2026-05-01 11:52 34.30920 129.78439 19056 ft 393 kts 320°
2026-05-01 11:53 34.33069 129.76390 18100 ft 392 kts 321°
2026-05-01 11:53 34.35219 129.74342 17735 ft 398 kts 321°
2026-05-01 11:53 34.37402 129.72260 17251 ft 396 kts 321°
2026-05-01 11:53 34.39557 129.70198 16690 ft 395 kts 321°
2026-05-01 11:54 34.41700 129.68146 16093 ft 393 kts 321°
2026-05-01 11:54 34.43832 129.66100 15469 ft 390 kts 321°
2026-05-01 11:54 34.45963 129.64055 14851 ft 388 kts 322°
2026-05-01 11:54 34.48082 129.62022 14245 ft 384 kts 322°
2026-05-01 11:55 34.50170 129.60016 13655 ft 382 kts 322°
2026-05-01 11:55 34.52219 129.58046 13076 ft 379 kts 322°
2026-05-01 11:55 34.54302 129.56043 12490 ft 376 kts 323°
2026-05-01 11:55 34.56324 129.54092 11900 ft 375 kts 323°
2026-05-01 11:56 34.58361 129.52129 11315 ft 372 kts 323°
2026-05-01 11:56 34.60406 129.50157 10905 ft 371 kts 323°
2026-05-01 11:56 34.62436 129.48201 10557 ft 371 kts 323°
2026-05-01 11:56 34.64462 129.46240 10311 ft 370 kts 323°
2026-05-01 11:57 34.66281 129.44041 10063 ft 372 kts 314°
2026-05-01 11:57 34.67909 129.41547 9887 ft 372 kts 311°
2026-05-01 11:57 34.69484 129.39061 9769 ft 372 kts 311°
2026-05-01 11:57 34.71077 129.36571 9664 ft 373 kts 311°
2026-05-01 11:58 34.72673 129.34100 9557 ft 364 kts 311°
2026-05-01 11:58 34.74162 129.31808 9818 ft 335 kts 312°
2026-05-01 11:58 34.76844 129.27705 9011 ft 289 kts 312°
2026-05-01 11:59 34.78064 129.25851 8543 ft 273 kts 312°
2026-05-01 11:59 34.79223 129.24094 8153 ft 259 kts 312°
2026-05-01 11:59 34.80343 129.22400 7779 ft 255 kts 313°
2026-05-01 12:00 34.82574 129.19028 7003 ft 254 kts 312°
2026-05-01 12:00 34.83679 129.17354 6636 ft 253 kts 311°
2026-05-01 12:00 34.85869 129.14031 5935 ft 251 kts 312°
2026-05-01 12:01 34.86966 129.12363 5599 ft 249 kts 311°
2026-05-01 12:01 34.88039 129.10731 5272 ft 247 kts 311°
2026-05-01 12:01 34.89106 129.09111 4950 ft 245 kts 312°
2026-05-01 12:01 34.90177 129.07480 4643 ft 242 kts 311°
2026-05-01 12:02 34.91227 129.05885 4331 ft 239 kts 311°
2026-05-01 12:02 34.92254 129.04323 4015 ft 238 kts 311°
2026-05-01 12:02 34.93281 129.02754 3698 ft 236 kts 311°
2026-05-01 12:02 34.94310 129.01187 3380 ft 234 kts 311°
2026-05-01 12:03 34.95319 128.99649 3098 ft 231 kts 311°
2026-05-01 12:03 34.96292 128.98166 3034 ft 217 kts 311°
2026-05-01 12:03 34.97304 128.96904 2999 ft 201 kts 330°
2026-05-01 12:03 34.98567 128.96310 3014 ft 188 kts 345°
2026-05-01 12:04 34.99845 128.96042 3031 ft 187 kts 350°
2026-05-01 12:04 35.01138 128.95863 2966 ft 187 kts 352°
2026-05-01 12:04 35.02433 128.95705 2806 ft 180 kts 352°
2026-05-01 12:04 35.03610 128.95560 2619 ft 162 kts 351°
2026-05-01 12:05 35.04678 128.95427 2363 ft 147 kts 349°
2026-05-01 12:05 35.06578 128.95180 1944 ft 134 kts 348°
2026-05-01 12:05 35.07505 128.95058 1761 ft 133 kts 349°
2026-05-01 12:06 35.08425 128.94937 1593 ft 132 kts 348°
2026-05-01 12:06 35.09348 128.94817 1420 ft 132 kts 349°
2026-05-01 12:06 35.10264 128.94699 1251 ft 132 kts 349°
2026-05-01 12:06 35.11171 128.94580 1081 ft 131 kts 350°
2026-05-01 12:07 35.12096 128.94461 910 ft 131 kts 350°
2026-05-01 12:07 35.13009 128.94342 730 ft 131 kts 350°
2026-05-01 12:07 35.13915 128.94225 554 ft 130 kts 351°
2026-05-01 12:07 35.14817 128.94107 380 ft 130 kts 351°
2026-05-01 12:08 35.15731 128.93985 207 ft 129 kts 351°
2026-05-01 12:08 35.16620 128.93870 42 ft 128 kts 352°
2026-05-01 12:08 35.17425 128.93773 19 ft 86 kts 352°
2026-05-01 12:08 35.17738 128.93774 21 ft 16 kts 52°
2026-05-01 12:09 35.17749 128.93829 20 ft 0 kts 84°
2026-05-01 12:10 35.17753 128.93870 20 ft 11 kts 84°
2026-05-01 12:10 35.17767 128.94249 15 ft 25 kts 109°
2026-05-01 12:10 35.17673 128.94421 15 ft 24 kts 161°
2026-05-01 12:11 35.17361 128.94459 18 ft 21 kts 174°
2026-05-01 12:11 35.17319 128.94466 18 ft 0 kts 173°
2026-05-01 12:11 35.17299 128.94469 18 ft 9 kts 173°
2026-05-01 12:12 35.17193 128.94482 18 ft 16 kts 174°
2026-05-01 12:12 35.17175 128.94544 18 ft 6 kts 91°
2026-05-01 12:12 35.17175 128.94569 18 ft 0 kts 89°